[[{"header":{"parameterUnit":"m.s-1","parameterCategory":1,"la1":30.2991,"la2":30.254,"lo1":-89.0895,"lo2":-89.0444,"dy":0.0017,"dx":0.0017,"nx":28,"ny":28,"refTime":"2025-08-02T09:00:00:Z","depth":0,"parameterNumber":2,"parameterNumberName":"U-component_of_WINDS"},"data":[0,0,0,0,0,0,0,0,0,0,0,0,0,0,0,0,0,0,0,0,0,0,0,0,0,0,0,0,0,0,0,0,0,0,0,0,0,0,0,0,0,0,0,0,0,0,0,0,0,0,0,0,0,0,0,0,0,0,1.4007,1.4007,0,1.4054,1.4054,1.4055,1.4053,1.4052,1.4051,1.4051,1.4102,1.4104,1.4105,0,0,0,0,0,0,0,0,0,0,0,0,0,1.3919,1.392,1.4007,1.4007,1.4008,1.4054,1.4054,1.4055,1.4053,1.4052,1.4051,1.405,1.4101,1.4103,1.4106,0,0,0,0,0,0,0,0,0,0,0,0,0,1.3961,1.3921,1.4007,1.4012,1.4013,1.4054,1.4054,1.4055,1.4053,1.4052,1.4051,1.405,1.41,1.4103,1.4106,1.4144,0,0,1.4115,1.4116,0,0,0,0,0,0,0,0,1.3958,1.3964,1.4011,1.4012,1.4013,1.4046,1.4042,1.4085,1.4053,1.4038,1.4051,1.405,1.4084,1.4088,1.41,1.4147,1.4149,1.4115,1.4117,1.4118,1.4119,0,0,0,0,0,0,0,1.3955,1.3962,1.4026,1.4012,1.4013,1.4014,1.4019,1.405,1.4066,1.4039,1.4039,1.4045,1.4085,1.4097,1.4101,1.415,1.4115,1.4118,1.412,1.4121,1.4232,1.4233,0,0,0,0,0,0,1.3951,1.3959,1.4024,1.4027,1.3983,1.4016,1.4021,1.4037,1.4066,1.4069,1.4046,1.4044,1.4092,1.4097,1.4102,1.415,1.4118,1.4121,1.4123,1.4231,1.4233,1.4234,0,0,0,0,0,0,1.3949,1.3957,1.4022,1.3993,1.4002,1.4019,1.4036,1.4038,1.405,1.4071,1.4074,1.4055,1.4091,1.4098,1.4134,1.4152,1.4122,1.4125,1.423,1.4232,1.4233,1.4245,0,0,0,0,0,0,1.3946,1.3956,1.397,1.3993,1.4003,1.4052,1.4037,1.404,1.4055,1.4054,1.408,1.4083,1.4091,1.413,1.4137,1.4155,1.4127,1.4228,1.4231,1.4233,1.4243,1.4247,1.425,0,0,0,0,0,1.3943,1.3972,1.3971,1.3978,1.4021,1.4053,1.4059,1.4066,1.4056,1.4071,1.4084,1.4082,1.4149,1.4133,1.4142,1.4161,1.4227,1.423,1.4232,1.4242,1.4246,1.425,0,0,0,0,0,0,1.395,1.3975,1.3974,1.4011,1.403,1.4052,1.4071,1.4071,1.4094,1.4092,1.4102,1.4108,1.4144,1.4156,1.4138,1.42,1.4187,1.4191,1.4191,1.4196,1.4199,1.4195,1.413,0,0,0,0,0,1.3956,1.3979,1.4,1.403,1.404,1.4054,1.4068,1.4073,1.4093,1.4101,1.4117,1.4138,1.4164,1.418,1.4205,1.4245,1.4251,1.4263,1.4266,1.4269,1.4273,1.4296,1.4302,1.4243,1.4242,1.4242,0,0,1.3968,1.3985,1.3999,1.4032,1.4047,1.4072,1.4061,1.4087,1.4106,1.4106,1.414,1.4153,1.4177,1.4215,1.4233,1.4227,1.4291,1.4272,1.4274,1.4277,1.4299,1.4305,1.431,1.4244,1.4244,1.4244,0,0,1.4003,1.4018,1.4045,1.406,1.4084,1.4093,1.4099,1.4123,1.4131,1.4165,1.4166,1.4189,1.4233,1.425,1.4264,1.4307,1.4307,1.4315,1.4334,1.4356,1.4361,1.4365,1.4381,1.4387,1.4319,1.4319,1.4319,0,1.4016,1.4052,1.4059,1.4086,1.4101,1.4101,1.413,1.4145,1.4175,1.4186,1.4179,1.4234,1.425,1.4293,1.4303,1.4315,1.4324,1.4312,1.436,1.4364,1.4368,1.4383,1.4389,1.432,1.432,1.4319,1.4319,0,1.4067,1.4092,1.4112,1.414,1.4158,1.4185,1.4198,1.4215,1.4218,1.4228,1.4265,1.4284,1.4313,1.4323,1.4327,1.4367,1.4363,1.4357,1.4344,1.4374,1.4389,1.4395,1.4321,1.4321,1.432,1.432,0,0,1.4107,1.414,1.4147,1.416,1.4186,1.4206,1.4235,1.4262,1.4277,1.4298,1.4323,1.436,1.4355,1.4372,1.4378,1.4397,1.4431,1.439,1.439,1.4397,1.4478,1.4482,1.4488,1.4431,1.4432,1.4433,1.4476,0,1.4145,1.4194,1.4202,1.4245,1.4269,1.427,1.4295,1.4314,1.4325,1.4348,1.4361,1.4387,1.4379,1.4389,1.4408,1.4423,1.4447,1.442,1.4455,1.4456,1.4449,1.4496,1.45,1.454,1.4482,1.4482,1.4483,0,1.4196,1.4218,1.4264,1.4287,1.4298,1.4319,1.4346,1.4367,1.439,1.4397,1.4415,1.4419,1.445,1.4435,1.4478,1.4459,1.4474,1.4483,1.4485,1.4489,1.4471,1.4501,1.4552,1.4558,1.4492,1.4491,1.4491,0,1.4221,1.4263,1.4295,1.4307,1.4335,1.435,1.4363,1.4384,1.4401,1.4424,1.4435,1.4462,1.4477,1.4499,1.451,1.4498,1.4553,1.4538,1.456,1.456,1.4572,1.4571,1.4626,1.4581,1.4581,1.458,1.458,0,1.4263,1.4291,1.4307,1.4327,1.4359,1.4369,1.44,1.4413,1.4432,1.4455,1.4458,1.4481,1.4494,1.4519,1.4528,1.4563,1.4569,1.4577,1.4579,1.4576,1.4576,1.4586,1.4584,1.4582,1.4582,1.4581,1.4581,0,1.4297,1.4309,1.4345,1.4368,1.4375,1.4397,1.4418,1.4439,1.445,1.448,1.4487,1.4505,1.4534,1.4548,1.4584,1.459,1.463,1.463,1.4622,1.4623,1.4644,1.4642,1.4708,1.4718,1.4666,1.4666,1.4667,0,1.4323,1.4344,1.437,1.4386,1.4399,1.4424,1.4441,1.4451,1.4468,1.4496,1.4513,1.4543,1.4566,1.4614,1.463,1.4659,1.466,1.4681,1.4664,1.4661,1.4661,1.4659,1.4662,1.4684,1.4685,1.4685,1.4686,0,1.4368,1.4373,1.4396,1.4422,1.4442,1.4463,1.4483,1.4496,1.451,1.453,1.4559,1.4578,1.4615,1.4645,1.4674,1.4688,1.469,1.4691,1.4697,1.4695,1.469,1.4694,1.4631,1.4689,1.4689,1.4689,1.4688,1.4688,1.4399,1.4418,1.444,1.4466,1.4483,1.4502,1.4522,1.4536,1.4561,1.4591,1.4596,1.4628,1.4651,1.4691,1.4706,1.4732,1.4727,1.4736,1.4739,1.4741,1.4743,1.4686,1.4737,1.4737,1.4737,1.4737,1.4737,0,1.4444,1.4458,1.4482,1.4511,1.4532,1.4531,1.4554,1.4572,1.46,1.4621,1.4644,1.4679,1.4708,1.4727,1.4756,1.4774,1.4775,1.4781,1.478,1.4784,1.4745,1.4737,1.4779,1.4779,1.4779,1.4779,1.4779,1.4779,1.447,1.4503,1.4511,1.4553,1.4567,1.4597,1.4611,1.463,1.4646,1.4685,1.4708,1.472,1.4741,1.4773,1.4799,1.4805,1.4816,1.4822,1.4827,1.4791,1.4786,1.4782,1.4774,1.4824,1.4824,1.4863,1.4864,1.4864]},{"header":{"parameterUnit":"m.s-1","parameterCategory":1,"la1":30.2991,"la2":30.254,"lo1":-89.0895,"lo2":-89.0444,"dy":0.0017,"dx":0.0017,"nx":28,"ny":28,"refTime":"2025-08-02T09:00:00:Z","depth":0,"parameterNumber":3,"parameterNumberName":"V-component_of_WINDS"},"data":[0,0,0,0,0,0,0,0,0,0,0,0,0,0,0,0,0,0,0,0,0,0,0,0,0,0,0,0,0,0,0,0,0,0,0,0,0,0,0,0,0,0,0,0,0,0,0,0,0,0,0,0,0,0,0,0,0,0,-1.6302,-1.6301,0,-1.6203,-1.6202,-1.6201,-1.6181,-1.6181,-1.6182,-1.6183,-1.6076,-1.6073,-1.6069,0,0,0,0,0,0,0,0,0,0,0,0,0,-1.647,-1.6467,-1.6302,-1.6301,-1.6299,-1.6203,-1.6202,-1.62,-1.6181,-1.6182,-1.6182,-1.6183,-1.6077,-1.6073,-1.6069,0,0,0,0,0,0,0,0,0,0,0,0,0,-1.6387,-1.6466,-1.6302,-1.6278,-1.6275,-1.6203,-1.6202,-1.62,-1.618,-1.6182,-1.6183,-1.6184,-1.6079,-1.6074,-1.6068,-1.6012,0,0,-1.6052,-1.605,0,0,0,0,0,0,0,0,-1.6391,-1.638,-1.6283,-1.6279,-1.6276,-1.6206,-1.6222,-1.6137,-1.618,-1.6216,-1.6183,-1.6184,-1.6118,-1.6109,-1.6088,-1.6007,-1.6003,-1.6051,-1.6048,-1.6046,-1.6044,0,0,0,0,0,0,0,-1.6397,-1.6384,-1.6262,-1.6281,-1.6277,-1.6271,-1.6261,-1.6206,-1.6161,-1.6213,-1.6211,-1.62,-1.6116,-1.6093,-1.6085,-1.6001,-1.6052,-1.6047,-1.6044,-1.6041,-1.5872,-1.5871,0,0,0,0,0,0,-1.6408,-1.6389,-1.6266,-1.626,-1.6338,-1.6267,-1.6255,-1.6227,-1.6162,-1.6153,-1.6199,-1.62,-1.6102,-1.6092,-1.6082,-1.6014,-1.6046,-1.6041,-1.6038,-1.5874,-1.5872,-1.5871,0,0,0,0,0,0,-1.6411,-1.6397,-1.627,-1.6324,-1.6307,-1.6263,-1.6231,-1.6224,-1.6201,-1.6152,-1.6143,-1.6184,-1.6102,-1.6089,-1.6031,-1.601,-1.6039,-1.6034,-1.5875,-1.5873,-1.5871,-1.5877,0,0,0,0,0,0,-1.6416,-1.6398,-1.6377,-1.6324,-1.6305,-1.6221,-1.623,-1.6221,-1.6193,-1.6192,-1.6136,-1.6127,-1.6102,-1.6039,-1.6026,-1.6003,-1.603,-1.5877,-1.5874,-1.5872,-1.5879,-1.5876,-1.5873,0,0,0,0,0,-1.6422,-1.6381,-1.6376,-1.6361,-1.6277,-1.622,-1.6209,-1.6183,-1.6191,-1.617,-1.6138,-1.6129,-1.6015,-1.6033,-1.6018,-1.5994,-1.5878,-1.5875,-1.5872,-1.588,-1.5876,-1.5873,0,0,0,0,0,0,-1.6429,-1.6373,-1.6367,-1.6307,-1.6269,-1.6217,-1.6188,-1.6179,-1.6136,-1.6137,-1.6105,-1.6092,-1.6036,-1.6009,-1.603,-1.5938,-1.5947,-1.5941,-1.5958,-1.5954,-1.5951,-1.5959,-1.6025,0,0,0,0,0,-1.6425,-1.6384,-1.6336,-1.6288,-1.6269,-1.6233,-1.6206,-1.619,-1.6148,-1.6131,-1.6095,-1.6054,-1.6009,-1.598,-1.5935,-1.5875,-1.5863,-1.5851,-1.5848,-1.5846,-1.5841,-1.581,-1.5804,-1.5861,-1.5861,-1.5861,0,0,-1.6413,-1.6377,-1.6353,-1.6289,-1.6257,-1.6216,-1.6219,-1.6173,-1.6143,-1.6124,-1.6068,-1.604,-1.5992,-1.5933,-1.5905,-1.5908,-1.5823,-1.5842,-1.5841,-1.5837,-1.5806,-1.5801,-1.5796,-1.5859,-1.586,-1.586,0,0,-1.6371,-1.6339,-1.6297,-1.6267,-1.622,-1.6196,-1.6186,-1.6136,-1.6118,-1.6062,-1.6048,-1.601,-1.5932,-1.5899,-1.5872,-1.5822,-1.5813,-1.5809,-1.5794,-1.5764,-1.5759,-1.5755,-1.5739,-1.5734,-1.5804,-1.5804,-1.5804,0,-1.6362,-1.63,-1.6276,-1.6233,-1.6206,-1.619,-1.6147,-1.6118,-1.6058,-1.604,-1.6045,-1.595,-1.5915,-1.585,-1.5839,-1.5817,-1.5805,-1.5815,-1.5762,-1.5758,-1.5754,-1.5738,-1.5732,-1.5804,-1.5804,-1.5804,-1.5804,0,-1.6293,-1.625,-1.6221,-1.6168,-1.6137,-1.6094,-1.6063,-1.6035,-1.6022,-1.5998,-1.5942,-1.5901,-1.585,-1.5833,-1.5818,-1.5766,-1.577,-1.5769,-1.5778,-1.5749,-1.5733,-1.5727,-1.5804,-1.5804,-1.5804,-1.5804,0,0,-1.625,-1.6187,-1.6177,-1.6154,-1.6103,-1.6069,-1.6026,-1.5979,-1.5956,-1.5916,-1.5879,-1.5816,-1.5816,-1.5786,-1.5767,-1.5741,-1.5707,-1.5743,-1.5742,-1.5739,-1.5649,-1.5651,-1.5644,-1.57,-1.5699,-1.5698,-1.5654,0,-1.6204,-1.6129,-1.6107,-1.6044,-1.6005,-1.5991,-1.5954,-1.5919,-1.5895,-1.5859,-1.5832,-1.5789,-1.5791,-1.5773,-1.5746,-1.5717,-1.5688,-1.5719,-1.5666,-1.5664,-1.568,-1.5636,-1.5637,-1.5597,-1.5647,-1.5646,-1.5645,0,-1.6138,-1.6101,-1.6035,-1.5992,-1.5975,-1.5942,-1.5899,-1.5863,-1.5823,-1.5809,-1.5777,-1.5762,-1.5717,-1.5729,-1.5666,-1.5688,-1.5665,-1.5648,-1.5645,-1.564,-1.5654,-1.563,-1.5583,-1.5578,-1.5635,-1.5636,-1.5637,0,-1.6117,-1.605,-1.6002,-1.5982,-1.5931,-1.5908,-1.5885,-1.5847,-1.5821,-1.5782,-1.5765,-1.572,-1.5696,-1.5662,-1.5635,-1.5646,-1.5576,-1.5585,-1.5563,-1.5564,-1.5548,-1.555,-1.5498,-1.5532,-1.5532,-1.5532,-1.5533,0,-1.6067,-1.6028,-1.5992,-1.5963,-1.5919,-1.5894,-1.5851,-1.5827,-1.5793,-1.5759,-1.5743,-1.5711,-1.5678,-1.5642,-1.562,-1.5573,-1.5562,-1.5549,-1.5544,-1.555,-1.5552,-1.5535,-1.5537,-1.5531,-1.5531,-1.5532,-1.5532,0,-1.6036,-1.601,-1.5958,-1.5915,-1.5903,-1.5872,-1.5835,-1.5806,-1.5784,-1.5741,-1.5729,-1.5693,-1.565,-1.5621,-1.5564,-1.555,-1.5499,-1.5494,-1.5513,-1.5511,-1.5491,-1.5494,-1.5427,-1.5418,-1.5458,-1.5457,-1.5457,0,-1.6006,-1.5976,-1.5931,-1.5908,-1.5886,-1.5849,-1.5823,-1.5799,-1.5772,-1.5727,-1.5704,-1.566,-1.5624,-1.5555,-1.5523,-1.548,-1.5475,-1.5454,-1.5468,-1.5477,-1.5476,-1.5479,-1.5476,-1.5452,-1.5452,-1.5452,-1.5451,0,-1.5957,-1.5947,-1.5912,-1.5873,-1.5844,-1.5811,-1.5778,-1.576,-1.5729,-1.5701,-1.5658,-1.563,-1.5575,-1.5532,-1.5487,-1.5462,-1.5452,-1.5448,-1.5441,-1.5448,-1.5461,-1.5455,-1.5509,-1.5449,-1.5449,-1.545,-1.545,-1.545,-1.5926,-1.59,-1.5866,-1.5827,-1.5801,-1.5772,-1.5744,-1.5719,-1.5684,-1.5638,-1.5625,-1.5581,-1.5544,-1.5483,-1.5458,-1.5423,-1.5425,-1.5414,-1.5411,-1.5409,-1.541,-1.5467,-1.5414,-1.5414,-1.5414,-1.5414,-1.5414,0,-1.5878,-1.5856,-1.5822,-1.5778,-1.5749,-1.5744,-1.5708,-1.5684,-1.5646,-1.5613,-1.5579,-1.5531,-1.549,-1.5456,-1.5414,-1.5392,-1.5387,-1.5382,-1.5384,-1.5379,-1.541,-1.5421,-1.5388,-1.5388,-1.5388,-1.5388,-1.5388,-1.5388,-1.585,-1.5806,-1.5792,-1.5736,-1.5713,-1.5672,-1.5652,-1.5625,-1.56,-1.5547,-1.5515,-1.5494,-1.5461,-1.5417,-1.5379,-1.5371,-1.5356,-1.5353,-1.5343,-1.5373,-1.5376,-1.5379,-1.5389,-1.535,-1.535,-1.5315,-1.5314,-1.5314]}]]